[[{"header":{"parameterUnit":"m.s-1","parameterCategory":1,"la1":30.2991,"la2":30.254,"lo1":-89.0895,"lo2":-89.0444,"dy":0.0017,"dx":0.0017,"nx":28,"ny":28,"refTime":"2025-12-03T03:00:00:Z","depth":0,"parameterNumber":2,"parameterNumberName":"U-component_of_WINDS"},"data":[0,0,0,0,0,0,0,0,0,0,0,0,0,0,0,0,0,0,0,0,0,0,0,0,0,0,0,0,0,0,0,0,0,0,0,0,0,0,0,0,0,0,0,0,0,0,0,0,0,0,0,0,0,0,0,0,0,0,-5.8087,-5.809,0,-5.8316,-5.8318,-5.8321,-5.8237,-5.8232,-5.8227,-5.8222,-5.8461,-5.8472,-5.8483,0,0,0,0,0,0,0,0,0,0,0,0,0,-5.7582,-5.7592,-5.8087,-5.809,-5.8093,-5.8315,-5.8319,-5.8322,-5.8238,-5.8232,-5.8226,-5.822,-5.8458,-5.8471,-5.8484,0,0,0,0,0,0,0,0,0,0,0,0,0,-5.7805,-5.7595,-5.8087,-5.8078,-5.8079,-5.8315,-5.8319,-5.8323,-5.824,-5.8232,-5.8224,-5.8217,-5.8453,-5.8469,-5.8486,-5.8745,0,0,-5.8537,-5.8545,0,0,0,0,0,0,0,0,-5.7793,-5.7824,-5.8076,-5.8079,-5.8081,-5.824,-5.8228,-5.8464,-5.8242,-5.8179,-5.8222,-5.8213,-5.8394,-5.8415,-5.8475,-5.8756,-5.8766,-5.8539,-5.8549,-5.8556,-5.8561,0,0,0,0,0,0,0,-5.7777,-5.7814,-5.8178,-5.808,-5.8083,-5.8064,-5.8087,-5.8272,-5.8328,-5.8184,-5.8178,-5.8206,-5.8394,-5.846,-5.848,-5.877,-5.8538,-5.8553,-5.8564,-5.857,-5.9276,-5.9284,0,0,0,0,0,0,-5.776,-5.7801,-5.817,-5.8184,-5.7915,-5.8079,-5.8105,-5.8197,-5.8325,-5.8337,-5.8213,-5.8202,-5.8435,-5.8461,-5.8489,-5.8801,-5.8556,-5.8572,-5.8581,-5.9267,-5.9278,-5.9287,0,0,0,0,0,0,-5.775,-5.7794,-5.8161,-5.7992,-5.8037,-5.8096,-5.82,-5.8206,-5.8271,-5.8347,-5.8357,-5.8269,-5.843,-5.8465,-5.8682,-5.8808,-5.8579,-5.8595,-5.9257,-5.9271,-5.9283,-5.9429,0,0,0,0,0,0,-5.7736,-5.7791,-5.7889,-5.7994,-5.8046,-5.835,-5.8208,-5.8216,-5.8299,-5.8287,-5.8403,-5.8414,-5.8426,-5.8657,-5.8699,-5.8827,-5.8608,-5.9246,-5.9263,-5.9279,-5.9413,-5.9445,-5.9472,0,0,0,0,0,-5.7718,-5.7922,-5.7894,-5.7939,-5.817,-5.8357,-5.8387,-5.8395,-5.831,-5.841,-5.8459,-5.8411,-5.8787,-5.868,-5.8726,-5.8862,-5.9238,-5.9258,-5.9277,-5.9399,-5.9439,-5.9472,0,0,0,0,0,0,-5.7831,-5.7935,-5.7906,-5.815,-5.8245,-5.8343,-5.8469,-5.8436,-5.8559,-5.8543,-5.8549,-5.8576,-5.8799,-5.8852,-5.873,-5.912,-5.9,-5.903,-5.9077,-5.9115,-5.9145,-5.9128,-5.8622,0,0,0,0,0,-5.7884,-5.8026,-5.811,-5.8317,-5.8366,-5.8409,-5.8491,-5.8489,-5.8589,-5.8629,-5.8694,-5.8794,-5.8935,-5.9028,-5.9161,-5.9419,-5.9444,-5.9535,-5.9565,-5.9589,-5.9616,-5.9758,-5.98,-5.9352,-5.9351,-5.9351,0,0,-5.7996,-5.807,-5.816,-5.8341,-5.8415,-5.8564,-5.8444,-5.8606,-5.8717,-5.8654,-5.8863,-5.8914,-5.9026,-5.9265,-5.9373,-5.9316,-5.9745,-5.9614,-5.9633,-5.9646,-5.9782,-5.9824,-5.9862,-5.9365,-5.9362,-5.936,0,0,-5.8275,-5.8345,-5.8525,-5.8601,-5.8714,-5.8741,-5.8785,-5.8888,-5.8919,-5.9128,-5.9084,-5.9217,-5.9459,-5.9541,-5.9614,-5.9925,-5.9886,-5.9968,-6.0125,-6.0264,-6.0299,-6.033,-6.0443,-6.0483,-5.9994,-5.9994,-5.9994,0,-5.84,-5.8621,-5.8623,-5.8789,-5.8871,-5.8819,-5.9003,-5.9077,-5.9228,-5.9287,-5.9219,-5.9523,-5.9594,-5.9852,-5.9928,-5.9988,-6.004,-5.9956,-6.0293,-6.0325,-6.0354,-6.0462,-6.0504,-6.0003,-6.0002,-6.0001,-6.0001,0,-5.8769,-5.8923,-5.9056,-5.9202,-5.9298,-5.9473,-5.9502,-5.96,-5.959,-5.9625,-5.9839,-5.9923,-6.0074,-6.0134,-6.0126,-6.0392,-6.0353,-6.029,-6.017,-6.0406,-6.0507,-6.0549,-6.0017,-6.0014,-6.0011,-6.0008,0,0,-5.9128,-5.9272,-5.9321,-5.9387,-5.9507,-5.9627,-5.9799,-5.9945,-6.0029,-6.0135,-6.0281,-6.0487,-6.0429,-6.0513,-6.0513,-6.0634,-6.0877,-6.0557,-6.0559,-6.0615,-6.1178,-6.1226,-6.1274,-6.0851,-6.0859,-6.0865,-6.1169,0,-5.9418,-5.9719,-5.9726,-6.0003,-6.0146,-6.0099,-6.0249,-6.034,-6.0377,-6.0505,-6.0547,-6.0693,-6.0605,-6.0655,-6.0773,-6.0823,-6.0991,-6.0801,-6.099,-6.0996,-6.0965,-6.1326,-6.1378,-6.1661,-6.1208,-6.1215,-6.122,0,-5.9797,-5.9914,-6.0205,-6.0305,-6.0365,-6.05,-6.0635,-6.0757,-6.0859,-6.0878,-6.0971,-6.0954,-6.1132,-6.1005,-6.1251,-6.1122,-6.1199,-6.1235,-6.1247,-6.1266,-6.1124,-6.1358,-6.1751,-6.1794,-6.1282,-6.1277,-6.1273,0,-6.0032,-6.0262,-6.0466,-6.0523,-6.0645,-6.0741,-6.0796,-6.0891,-6.0978,-6.1096,-6.1153,-6.1291,-6.1367,-6.1475,-6.1496,-6.1401,-6.1743,-6.1618,-6.1766,-6.1766,-6.1842,-6.1837,-6.2255,-6.1889,-6.1888,-6.1887,-6.1886,0,-6.0357,-6.0537,-6.0573,-6.0699,-6.0899,-6.0906,-6.1105,-6.1153,-6.1238,-6.1373,-6.1341,-6.1469,-6.1488,-6.1621,-6.1639,-6.1841,-6.1875,-6.1897,-6.19,-6.1902,-6.1899,-6.1954,-6.1936,-6.1899,-6.1896,-6.1894,-6.1892,0,-6.0653,-6.0684,-6.0904,-6.1,-6.1029,-6.1173,-6.1256,-6.1377,-6.141,-6.1583,-6.1623,-6.1677,-6.1832,-6.1863,-6.2047,-6.2059,-6.2301,-6.2283,-6.2266,-6.2265,-6.2412,-6.2399,-6.2881,-6.2946,-6.2535,-6.2539,-6.2543,0,-6.0859,-6.0997,-6.1108,-6.1195,-6.1255,-6.1397,-6.1485,-6.1497,-6.1591,-6.1718,-6.1825,-6.1976,-6.2098,-6.2349,-6.2406,-6.2547,-6.2534,-6.2693,-6.2555,-6.2552,-6.2539,-6.2531,-6.2546,-6.272,-6.2725,-6.2728,-6.2731,0,-6.1222,-6.1231,-6.1359,-6.1494,-6.16,-6.1707,-6.1808,-6.1882,-6.1907,-6.2015,-6.2173,-6.2267,-6.2455,-6.2607,-6.2747,-6.2806,-6.2775,-6.2774,-6.2816,-6.282,-6.2805,-6.2817,-6.234,-6.2763,-6.276,-6.2758,-6.2756,-6.2755,-6.1482,-6.1602,-6.1699,-6.1843,-6.192,-6.2016,-6.2135,-6.2182,-6.2313,-6.2466,-6.2465,-6.2638,-6.2738,-6.2924,-6.2992,-6.3129,-6.3079,-6.3139,-6.3155,-6.3171,-6.3185,-6.2781,-6.3154,-6.3153,-6.3152,-6.3152,-6.3151,0,-6.1845,-6.1904,-6.2037,-6.2179,-6.2293,-6.225,-6.2361,-6.246,-6.2612,-6.2707,-6.2827,-6.3009,-6.3156,-6.3224,-6.337,-6.3467,-6.3456,-6.3505,-6.3499,-6.3513,-6.3221,-6.317,-6.3511,-6.3511,-6.3511,-6.3511,-6.3511,-6.3511,-6.2047,-6.2249,-6.2269,-6.2509,-6.2568,-6.2736,-6.2803,-6.2891,-6.2967,-6.3172,-6.3293,-6.3335,-6.3421,-6.3572,-6.3706,-6.3722,-6.3778,-6.3835,-6.3845,-6.357,-6.3534,-6.3499,-6.3452,-6.3846,-6.3847,-6.4126,-6.4129,-6.4131]},{"header":{"parameterUnit":"m.s-1","parameterCategory":1,"la1":30.2991,"la2":30.254,"lo1":-89.0895,"lo2":-89.0444,"dy":0.0017,"dx":0.0017,"nx":28,"ny":28,"refTime":"2025-12-03T03:00:00:Z","depth":0,"parameterNumber":3,"parameterNumberName":"V-component_of_WINDS"},"data":[0,0,0,0,0,0,0,0,0,0,0,0,0,0,0,0,0,0,0,0,0,0,0,0,0,0,0,0,0,0,0,0,0,0,0,0,0,0,0,0,0,0,0,0,0,0,0,0,0,0,0,0,0,0,0,0,0,0,-3.4977,-3.4976,0,-3.4923,-3.4922,-3.4922,-3.4842,-3.484,-3.4839,-3.4838,-3.4784,-3.4783,-3.4783,0,0,0,0,0,0,0,0,0,0,0,0,0,-3.5011,-3.501,-3.4977,-3.4976,-3.4975,-3.4923,-3.4922,-3.4922,-3.4842,-3.484,-3.4838,-3.4837,-3.4784,-3.4784,-3.4783,0,0,0,0,0,0,0,0,0,0,0,0,0,-3.498,-3.501,-3.4977,-3.4929,-3.4925,-3.4923,-3.4922,-3.4921,-3.4842,-3.484,-3.4838,-3.4836,-3.4784,-3.4784,-3.4783,-3.4824,0,0,-3.4783,-3.4783,0,0,0,0,0,0,0,0,-3.4982,-3.4979,-3.4937,-3.4933,-3.4927,-3.4887,-3.4914,-3.4889,-3.4843,-3.4874,-3.4837,-3.4835,-3.482,-3.4816,-3.4811,-3.4822,-3.482,-3.4783,-3.4783,-3.4783,-3.4783,0,0,0,0,0,0,0,-3.4984,-3.4981,-3.4955,-3.4937,-3.4931,-3.4911,-3.4904,-3.4909,-3.4859,-3.4871,-3.4865,-3.4859,-3.4817,-3.4811,-3.4809,-3.4819,-3.4783,-3.4783,-3.4782,-3.4782,-3.4858,-3.486,0,0,0,0,0,0,-3.4993,-3.4983,-3.4957,-3.4954,-3.495,-3.4912,-3.4904,-3.4902,-3.4859,-3.485,-3.4861,-3.4856,-3.4813,-3.4809,-3.4807,-3.485,-3.4783,-3.4782,-3.4782,-3.4856,-3.4858,-3.4861,0,0,0,0,0,0,-3.4994,-3.4992,-3.4959,-3.4967,-3.4961,-3.4913,-3.4911,-3.4902,-3.4896,-3.4852,-3.4843,-3.4865,-3.4811,-3.4807,-3.482,-3.4847,-3.4782,-3.4782,-3.4853,-3.4857,-3.486,-3.4938,0,0,0,0,0,0,-3.4996,-3.4993,-3.5008,-3.4968,-3.4961,-3.4974,-3.4913,-3.4902,-3.4896,-3.4889,-3.4853,-3.4845,-3.4809,-3.4821,-3.482,-3.4846,-3.4782,-3.4851,-3.4855,-3.4859,-3.4933,-3.4943,-3.4953,0,0,0,0,0,-3.4997,-3.5033,-3.5009,-3.5006,-3.4979,-3.4975,-3.4971,-3.4929,-3.4899,-3.4913,-3.4884,-3.4846,-3.4845,-3.4823,-3.4821,-3.4847,-3.4849,-3.4854,-3.4858,-3.4928,-3.4941,-3.4952,0,0,0,0,0,0,-3.5078,-3.5027,-3.5,-3.5024,-3.5004,-3.4962,-3.4979,-3.4945,-3.4934,-3.4927,-3.4876,-3.4868,-3.4887,-3.4869,-3.4845,-3.4883,-3.4841,-3.4845,-3.4894,-3.4906,-3.4916,-3.4919,-3.4782,0,0,0,0,0,-3.5099,-3.51,-3.5055,-3.508,-3.5072,-3.5027,-3.5024,-3.4993,-3.4971,-3.4963,-3.4935,-3.4915,-3.4909,-3.4907,-3.49,-3.493,-3.492,-3.4947,-3.4957,-3.4966,-3.497,-3.4982,-3.4992,-3.4876,-3.4876,-3.4876,0,0,-3.5141,-3.5113,-3.5117,-3.5096,-3.5077,-3.5079,-3.5021,-3.5026,-3.5026,-3.4963,-3.4973,-3.4952,-3.4926,-3.4947,-3.4955,-3.4932,-3.5,-3.4972,-3.4979,-3.4978,-3.4988,-3.4999,-3.5008,-3.488,-3.4879,-3.4879,0,0,-3.5219,-3.5199,-3.5216,-3.5199,-3.5171,-3.5141,-3.5145,-3.5108,-3.5091,-3.5099,-3.5052,-3.5052,-3.5045,-3.5027,-3.5018,-3.5088,-3.5052,-3.5088,-3.5139,-3.5151,-3.516,-3.5168,-3.5191,-3.52,-3.5092,-3.5092,-3.5093,0,-3.5275,-3.5276,-3.523,-3.5237,-3.5228,-3.5171,-3.5188,-3.5173,-3.5145,-3.514,-3.5115,-3.5103,-3.5082,-3.5097,-3.5114,-3.5109,-3.5111,-3.5091,-3.5163,-3.517,-3.5176,-3.5197,-3.5206,-3.5097,-3.5096,-3.5096,-3.5095,0,-3.5345,-3.5346,-3.5364,-3.5336,-3.533,-3.5342,-3.5298,-3.5297,-3.5266,-3.5239,-3.5248,-3.522,-3.5206,-3.5207,-3.5178,-3.5218,-3.5204,-3.5172,-3.5128,-3.5193,-3.5211,-3.5219,-3.5103,-3.5101,-3.51,-3.5099,0,0,-3.5472,-3.5418,-3.5425,-3.5411,-3.5376,-3.5376,-3.5385,-3.537,-3.5369,-3.5352,-3.5357,-3.5351,-3.5321,-3.531,-3.5279,-3.529,-3.5344,-3.5255,-3.5254,-3.5271,-3.5383,-3.5406,-3.5416,-3.532,-3.5322,-3.5323,-3.5384,0,-3.554,-3.5552,-3.5511,-3.5533,-3.5533,-3.5478,-3.5486,-3.5465,-3.5439,-3.5435,-3.5407,-3.5403,-3.5364,-3.5356,-3.5365,-3.5336,-3.5365,-3.5331,-3.5323,-3.5323,-3.5329,-3.5426,-3.545,-3.551,-3.5391,-3.5393,-3.5394,0,-3.5622,-3.5608,-3.563,-3.5591,-3.5589,-3.5597,-3.5579,-3.5576,-3.5551,-3.5531,-3.5519,-3.5482,-3.5487,-3.5446,-3.5452,-3.543,-3.5424,-3.5409,-3.541,-3.5406,-3.5361,-3.5422,-3.5528,-3.5536,-3.5405,-3.5404,-3.5403,0,-3.5709,-3.5695,-3.5706,-3.5696,-3.5653,-3.5659,-3.5641,-3.5613,-3.5606,-3.5591,-3.5585,-3.5572,-3.5563,-3.5553,-3.5513,-3.5487,-3.5523,-3.5479,-3.5505,-3.5506,-3.5514,-3.5513,-3.5617,-3.5514,-3.5514,-3.5514,-3.5514,0,-3.5789,-3.5804,-3.5744,-3.575,-3.5765,-3.5718,-3.5734,-3.5711,-3.5687,-3.5687,-3.564,-3.5641,-3.5589,-3.5585,-3.5554,-3.5562,-3.5559,-3.5543,-3.5534,-3.5545,-3.5547,-3.554,-3.5534,-3.5516,-3.5516,-3.5515,-3.5515,0,-3.5888,-3.5849,-3.5856,-3.5814,-3.5804,-3.5816,-3.578,-3.5783,-3.5755,-3.5756,-3.5753,-3.5709,-3.5701,-3.566,-3.5643,-3.5622,-3.564,-3.5624,-3.5648,-3.5642,-3.567,-3.5667,-3.5771,-3.5781,-3.5674,-3.5675,-3.5676,0,-3.594,-3.595,-3.5909,-3.5905,-3.5889,-3.5885,-3.5877,-3.5831,-3.5825,-3.5796,-3.5803,-3.5791,-3.5779,-3.5768,-3.5734,-3.572,-3.5702,-3.5739,-3.57,-3.571,-3.57,-3.5699,-3.5698,-3.5747,-3.5749,-3.575,-3.5751,0,-3.6037,-3.6016,-3.6007,-3.599,-3.5982,-3.5967,-3.5949,-3.5949,-3.5898,-3.5893,-3.5884,-3.5874,-3.5856,-3.5844,-3.5824,-3.5805,-3.5769,-3.5764,-3.5769,-3.578,-3.5792,-3.5783,-3.5669,-3.5761,-3.576,-3.5759,-3.5759,-3.5758,-3.6112,-3.6117,-3.6088,-3.6079,-3.6061,-3.6045,-3.6045,-3.6017,-3.6008,-3.5989,-3.5963,-3.5956,-3.5929,-3.5899,-3.5883,-3.5877,-3.5856,-3.5864,-3.5866,-3.5868,-3.5873,-3.5795,-3.5873,-3.5873,-3.5873,-3.5872,-3.5872,0,-3.6203,-3.6182,-3.6174,-3.615,-3.6142,-3.6109,-3.6087,-3.6083,-3.6078,-3.6056,-3.6044,-3.6033,-3.6021,-3.5985,-3.597,-3.5971,-3.5954,-3.5969,-3.5967,-3.5963,-3.5893,-3.5889,-3.5983,-3.5983,-3.5983,-3.5983,-3.5983,-3.5983,-3.625,-3.6257,-3.6233,-3.623,-3.6208,-3.6202,-3.6192,-3.6176,-3.6158,-3.6147,-3.6137,-3.6114,-3.6086,-3.6067,-3.6054,-3.6044,-3.6039,-3.6059,-3.6043,-3.5979,-3.5968,-3.5958,-3.5954,-3.6059,-3.6059,-3.6113,-3.6113,-3.6114]}]]